This is the latest recevied weather packets stored in our database for station/object HP1MRA-15. If no packets are shown the sender has not sent any weather packets the latest 10 day(s).
| Time | Temp. | Humidity | Pressure | Rain* | Wind** | Luminosity | Snow |
|---|---|---|---|---|---|---|---|
| 1788105160 | 37.22° C | 72% | 1004.1 hPa | 0 mm | - | - | - |
| 1788105158 | 37.78° C | 72% | 1004.1 hPa | 0 mm | - | - | - |
| 1788104859 | 37.78° C | 72% | 1004.1 hPa | 0 mm | - | - | - |
| 1788104560 | 38.89° C | 66% | 1004.2 hPa | 0 mm | - | - | - |
| 1788104258 | 38.33° C | 73% | 1004 hPa | 0 mm | - | - | - |
| 1788103959 | 37.78° C | 73% | 1004 hPa | 0 mm | - | - | - |
| 1788103660 | 37.78° C | 73% | 1004 hPa | 0 mm | - | - | - |
| 1788103359 | 37.78° C | 72% | 1004.2 hPa | 0 mm | - | - | - |
| 1788103359 | 37.78° C | 72% | 1004.1 hPa | 0 mm | - | - | - |
| 1788103059 | 37.22° C | 74% | 1004.1 hPa | 0 mm | - | - | - |
| 1788102759 | 36.11° C | 75% | 1004.2 hPa | 0 mm | - | - | - |
| 1788102457 | 36.11° C | 75% | 1004 hPa | 0 mm | - | - | - |
| 1788102159 | 36.67° C | 73% | 1004.1 hPa | 0 mm | - | - | - |
| 1788101859 | 36.67° C | 72% | 1003.9 hPa | 0 mm | - | - | - |
| 1788101560 | 37.22° C | 71% | 1003.8 hPa | 0 mm | - | - | - |
| 1788101558 | 37.22° C | 70% | 1003.8 hPa | 0 mm | - | - | - |
| 1788101259 | 37.22° C | 76% | 1003.7 hPa | 0 mm | - | - | - |
| 1788100959 | 36.67° C | 75% | 1003.7 hPa | 0 mm | - | - | - |
| 1788100658 | 36.67° C | 76% | 1003.5 hPa | 0 mm | - | - | - |
| 1788100359 | 36.11° C | 75% | 1003.5 hPa | 0 mm | - | - | - |
| 1788100059 | 35.56° C | 75% | 1003.5 hPa | 0 mm | - | - | - |
| 1788099758 | 35.56° C | 75% | 1003.3 hPa | 0 mm | - | - | - |
| 1788099457 | 35° C | 75% | 1003.3 hPa | 0 mm | - | - | - |
| 1788099159 | 34.44° C | 77% | 1003.2 hPa | 0 mm | - | - | - |
| 1788098859 | 33.89° C | 77% | 1003.2 hPa | 0 mm | - | - | - |
* Rain latest hour (hover to see other rain measurements)
** Current wind speed in m/s (hover to see current wind gust speed)